Location: Newark
(25.0000°N, 73.5000°E)
Time: 00:53:27
(UTC+00:00)

Tiros 1 despin weight - Pass Details

Date: 05 March 2021
Orbit: 593 x 641 km, 48.2° (Epoch: 15 April)

Event Time Altitude Azimuth Distance (km) Brightness Sun altitude
Rises 15:02:46 0° 188° (S) 2,822 ? -26.3°
Enters shadow 15:03:07 - 187° (S) 2,706 ? -26.4°
Reaches altitude 10° 15:05:43 10° 168° (SSE) 1,931 - -26.9°
Maximum altitude 15:08:34 17° 127° (SE) 1,541 - -27.6°
Drops below altitude 10° 15:11:28 10° 87° (E) 1,954 - -28.2°
Sets 15:14:28 0° 67° (ENE) 2,872 - -28.9°
